User: anonymous
Location: Sun City Center
(27.6996°N, 82.3528°W)
Time: 23:37:45
(UTC-04:00)
Language:

Cosmos 2084 Rocket - Orbit

View from above orbital plane
View from above orbital plane
View from above satellite
View from above satellite

Ground track
Ground track

The orbit data is extracted from the following two-line orbital elements,

1 20666U 90055D   14205.06736004  .00000104  00000-0  29460-4 0  2338
2 20666 062.7877 079.9269 0056775 349.7309 010.2618 14.89708349303249
Epoch (UTC): 24 July 2014 01:36:59
Eccentricity: 0.0056775
inclination: 62.7877°
perigee height: 559 km
apogee height: 638 km
right ascension of ascending node: 79.9269°
argument of perigee: 349.7309°
revolutions per day: 14.89708349
mean anomaly at epoch: 10.2618°
orbit number at epoch: 30324

The dashed part of the orbit path shows where the satellite is in the earth's shadow,  

DLR